Location: Newark
(27.9881°N, 86.9253°E)
Time: 07:25:06
(UTC+00:00)

Hubble Space Telescope - Visible Passes

Search period start: 20 September 2020 00:00
Search period end: 30 September 2020 00:00
Orbit: 536 x 540 km, 28.5° (Epoch: 19 September)

Date Brightness Start Highest point End Pass type
(mag) Time Alt. Az. Time Alt. Az. Time Alt. Az.
20 Sep 3.4 23:00:06 10° S 23:01:39 12° SSE 23:03:12 10° SE visible
21 Sep 3.2 22:48:22 10° S 22:50:51 15° SSE 22:53:19 10° ESE visible
22 Sep 2.8 22:38:11 15° S 22:40:03 20° SSE 22:43:05 10° ESE visible
23 Sep 2.3 22:28:19 23° S 22:29:16 25° SSE 22:32:40 10° E visible
24 Sep 2.0 22:18:25 31° SSE 22:18:29 31° SSE 22:22:08 10° E visible
25 Sep 2.0 22:08:27 35° SE 22:08:27 35° SE 22:11:33 10° E visible
26 Sep 2.4 21:58:27 31° ESE 21:58:27 31° ESE 22:00:56 10° E visible
26 Sep 0.8 23:33:57 10° W 23:38:04 87° N 23:42:12 10° E visible
27 Sep 2.9 21:48:24 25° E 21:48:24 25° E 21:50:16 10° E visible
27 Sep 0.8 23:23:44 13° W 23:27:23 84° N 23:31:30 10° E visible
28 Sep 3.4 21:38:21 19° E 21:38:21 19° E 21:39:34 10° E visible
28 Sep 0.7 23:13:41 18° W 23:16:41 82° N 23:20:48 10° E visible
29 Sep 3.8 21:28:18 14° E 21:28:18 14° E 21:28:53 10° E visible
29 Sep 0.7 23:03:37 24° W 23:05:59 83° N 23:10:07 10° E visible
